{"data":{"norad_id":57718,"intl_designator":"2023-129W","name":"STARLINK-30338","alt_names":[],"object_type":"PAYLOAD","status":"ACTIVE","operator":null,"country":"US","launch_date":"2023-08-27","launch_site_code":"AFETR","launch_vehicle":null,"mission":null,"orbit_class":"UNKNOWN","rcs_meters":null,"size_class":null,"mass_kg":null,"dimensions":null,"purposes":["comms"],"wikipedia_slug":null,"has_3d_model":false,"image_url":null,"decayed_at":null,"tle_current":{"epoch":"2026-09-20T21:30:59.872320Z","epoch_age_seconds":114306,"freshness":"FRESH","line1":"1 57718U 23129W   26263.89652630  .00000617  00000+0  31933-4 0  9999","line2":"2 57718  43.0004  95.7589 0001204 262.8008  97.2707 15.27575445170530","mean_motion":15.27575445,"eccentricity":0.0001204,"inclination_deg":43.0004,"raan_deg":95.7589,"arg_perigee_deg":262.8008,"mean_anomaly_deg":97.2707,"bstar":3.1933e-5,"rev_number":17053,"period_min":94.267029802904,"perigee_km":482.23664693406,"apogee_km":483.88882383034,"semimajor_km":6861.1997353822,"source":"CELESTRAK","updated_at":"2026-09-21T09:00:33.677642Z"}}}